Location: Be?chatów
(51.3665°N, 19.3745°E)
Time: 22:25:05
(UTC+00:00)

Cosmos 1980 Rocket - Pass Details

Date: 19 May 2025
Orbit: 829 x 847 km, 71.0° (Epoch: 16 June)

Event Time Altitude Azimuth Distance (km) Brightness Sun altitude
Rises 20:45:50 0° 328° (NNW) 3,384 7.3 -14.5°
Reaches altitude 10° 20:48:17 10° 325° (NW) 2,447 6.0 -14.6°
Maximum altitude 20:53:48 62° 246° (WSW) 933 2.4 -15.0°
Enters shadow 20:57:23 22° 172° (S) 1,738 3.3 -15.3°
